Skip Page Navigation
NASA JPL Caltech
NASA Logo - Jet Propulsion Laboratory + View the NASA Portal
+ Center for Near-Earth Object Studies
JPL Home Earth Solar System Stars & Galaxies Technology
JPL Solar System Dynamics
BODIES ORBITS EPHEMERIDES TOOLS PHYSICAL DATA DISCOVERY FAQ SITE MAP
JPL Small-Body Database Browser
Search: [ help ]  
58489 (1996 TF34)
Classification: Main-belt Asteroid          SPK-ID: 2058489
Ephemeris | Orbit Diagram | Orbital Elements | Mission Design | Physical Parameters | Discovery Circumstances | Close-Approach Data ]

[ show orbit diagram ]
Orbital Elements at Epoch 2459000.5 (2020-May-31.0) TDB
Reference: JPL 21 (heliocentric ecliptic J2000)
 Element Value Uncertainty (1-sigma)   Units 
e .06338523622917323 5.1445e-08  
a 2.777476834398199 1.2861e-08 au
q 2.601425809128812 1.4464e-07 au
i .8583069605362394 3.8293e-06 deg
node 300.1185112604393 0.00032693 deg
peri 77.1874833442434 0.00032894 deg
M 54.12006775421678 3.3768e-05 deg
tp 2458746.326701003060
(2019-Sep-19.82670100)
0.00015867 TDB
period 1690.729362247871
4.63
1.1743e-05
3.215e-08
d
yr
n .2129258579394221 1.4789e-09 deg/d
Q 2.953527859667584 1.3676e-08 au
  Orbit Determination Parameters
   # obs. used (total)      944  
   data-arc span      8807 days (24.11 yr)  
   first obs. used      1996-10-04  
   last obs. used      2020-11-14  
   planetary ephem.      DE431  
   SB-pert. ephem.      SB431-N16  
   condition code      0  
   norm. resid. RMS      .5386  
   source      ORB  
   producer      Otto Matic  
   solution date      2020-Dec-17 21:40:30  

Additional Information
 Earth MOID = 1.6028 au 
 Jupiter MOID = 2.35519 au 
 T_jup = 3.332 
[ show covariance matrix ]

Ephemeris | Orbit Diagram | Orbital Elements | Mission Design | Physical Parameters | Discovery Circumstances | Close-Approach Data ]

Physical Parameter Table
Parameter Symbol Value Units Sigma Reference Notes
absolute magnitude H 15.2   n/a MPO452963  

58489 (1996 TF34)          Discovered 1996-Oct-10 by Spacewatch at Kitt Peak
Reference: 20030614/Numbers.arcLast Updated: 2004-04-19

[ show close-approach data ]
Alternate Designations
 1996 TF34 = 2000 QB244 
Ephemeris | Orbit Diagram | Orbital Elements | Mission Design | Physical Parameters | Discovery Circumstances | Close-Approach Data ]
ABOUT SSD CREDITS/AWARDS PRIVACY/COPYRIGHT GLOSSARY LINKS
FirstGov 2021-Jan-22 11:01 UT
(server date/time)  
NASA Home Page
Site Manager:   Ryan S. Park
Webmaster  Alan B. Chamberlin